Moriarty, NM

3:12 AM MST on January 23, 2018 (GMT -0700)
Moriarty

Weather History for K0E0 - April, 2013

Change the Weather History Date:

Thursday, April 25, 2013

  Actual Average (KABQ) Record (KABQ)
Temperature  
Mean Temperature 56 °F -  
Max Temperature 74 °F 73 °F 86 °F (1981)
Min Temperature 37 °F 43 °F 25 °F (1921)
Degree Days  
Heating Degree Days 10    
Growing Degree Days 6 (Base 50)    
Moisture  
Dew Point 24 °F    
Average Humidity 33    
Maximum Humidity 53    
Minimum Humidity 14    
Precipitation  
Precipitation 0.00 in - - ()
Sea Level Pressure  
Sea Level Pressure 30.12 in    
Wind  
Wind Speed 11 mph (SSE)    
Max Wind Speed 32 mph    
Max Gust Speed 45 mph    
Visibility 10 miles    
Events      
Averages and records for this station are not official NWS values.
T = Trace of Precipitation, MM = Missing Value Source: NWS Daily Summary

Daily Weather History Graph

Daily Weather History Graph

Search for Another Location

Airport or City:

Trip Planner

Search our weather history database for the weather conditions in past years. The results will help you decide how hot, cold, wet, or windy it might be!

Date:

Astronomy

Apr. 25, 2013 Rise Set
Actual Time 6:19 AM MDT 7:44 PM MDT
Civil Twilight 5:52 AM MDT 8:11 PM MDT
Nautical Twilight 5:20 AM MDT 8:43 PM MDT
Astronomical Twilight 4:47 AM MDT 9:17 PM MDT
Moon 7:59 PM MDT (4/25) 6:04 AM MDT (4/25)
Length of Visible Light 14h 18m
Length of Day
13h 25m
Full, 100% of the Moon is Illuminated
Apr 25
Full
Apr 25
Full
May 2
Last Quarter
May 9
New
May 17
First Quarter

Hourly Weather History & Observations

Time (MDT) Temp. Windchill Dew Point Humidity Pressure Visibility Wind Dir Wind Speed Gust Speed Precip Events Conditions
12:15 AM 45.0 °F 39.3 °F 20.1 °F 37% 30.19 in 10.0 mi East 11.5 mph - N/A   Clear
12:35 AM 45.5 °F 40.3 °F 20.3 °F 37% 30.19 in 10.0 mi East 10.4 mph - N/A   Clear
12:55 AM 44.8 °F 40.4 °F 20.7 °F 38% 30.20 in 10.0 mi East 8.1 mph - N/A   Clear
1:15 AM 44.1 °F 42.5 °F 20.3 °F 39% 30.21 in 10.0 mi West 3.5 mph - N/A   Clear
1:35 AM 44.6 °F 43.1 °F 21.2 °F 39% 30.22 in 10.0 mi East 3.5 mph - N/A   Clear
1:55 AM 44.1 °F 40.8 °F 21.2 °F 40% 30.22 in 10.0 mi East 5.8 mph - N/A   Clear
2:15 AM 43.5 °F - 21.6 °F 42% 30.21 in 10.0 mi Calm Calm - N/A   Clear
2:35 AM 44.1 °F - 22.1 °F 42% 30.20 in 10.0 mi Calm Calm - N/A   Scattered Clouds
2:55 AM 45.0 °F 41.8 °F 23.0 °F 42% 30.19 in 10.0 mi ESE 5.8 mph - N/A   Mostly Cloudy
3:15 AM 43.9 °F - 22.8 °F 43% 30.20 in 10.0 mi Calm Calm - N/A   Scattered Clouds
3:35 AM 43.5 °F - 22.8 °F 44% 30.20 in 10.0 mi Calm Calm - N/A   Clear
3:55 AM 43.7 °F - 22.5 °F 43% 30.21 in 10.0 mi Calm Calm - N/A   Clear
4:15 AM 41.5 °F 38.6 °F 22.6 °F 47% 30.20 in 10.0 mi East 4.6 mph - N/A   Clear
4:35 AM 40.5 °F 38.4 °F 23.2 °F 50% 30.20 in 10.0 mi East 3.5 mph - N/A   Clear
4:55 AM 41.0 °F - 23.5 °F 50% 30.20 in 10.0 mi Calm Calm - N/A   Scattered Clouds
5:15 AM 37.4 °F 34.9 °F 19.2 °F 48% 30.21 in 10.0 mi SW 3.5 mph - N/A   Clear
5:35 AM 39.7 °F 36.5 °F 23.7 °F 53% 30.21 in 10.0 mi SSE 4.6 mph - N/A   Clear
5:55 AM 41.9 °F 40.0 °F 25.0 °F 51% 30.22 in 10.0 mi SE 3.5 mph - N/A   Clear
6:15 AM 42.3 °F - 25.5 °F 52% 30.22 in 10.0 mi Calm Calm - N/A   Mostly Cloudy
6:35 AM 42.1 °F 39.2 °F 25.5 °F 52% 30.22 in 10.0 mi SE 4.6 mph - N/A   Overcast
6:55 AM 42.6 °F 37.8 °F 25.7 °F 51% 30.23 in 10.0 mi ESE 8.1 mph - N/A   Scattered Clouds
7:15 AM 42.8 °F 39.3 °F 25.9 °F 51% 30.23 in 10.0 mi ESE 5.8 mph - N/A   Scattered Clouds
7:35 AM 43.7 °F 40.3 °F 25.7 °F 49% 30.23 in 10.0 mi ESE 5.8 mph - N/A   Clear
7:55 AM 44.2 °F 41.0 °F 25.3 °F 47% 30.24 in 10.0 mi ESE 5.8 mph - N/A   Clear
8:15 AM 44.2 °F 39.7 °F 24.8 °F 46% 30.25 in 10.0 mi SE 8.1 mph - N/A   Clear
8:35 AM 44.6 °F 38.8 °F 24.6 °F 45% 30.25 in 10.0 mi SE 11.5 mph - N/A   Mostly Cloudy
8:55 AM 45.0 °F 39.7 °F 24.6 °F 45% 30.25 in 10.0 mi SE 10.4 mph - N/A   Scattered Clouds
9:15 AM 46.6 °F - 24.6 °F 42% 30.25 in 10.0 mi ESE 11.5 mph - N/A   Scattered Clouds
9:35 AM 48.4 °F - 24.3 °F 39% 30.25 in 10.0 mi SE 13.8 mph - N/A   Scattered Clouds
9:55 AM 48.6 °F - 23.9 °F 38% 30.25 in 10.0 mi SE 11.5 mph - N/A   Clear
10:15 AM 50.2 °F - 23.9 °F 36% 30.24 in 10.0 mi SE 13.8 mph 21.9 mph N/A   Clear
10:55 AM 54.3 °F - 23.9 °F 31% 30.23 in 10.0 mi SSE 13.8 mph 19.6 mph N/A   Clear
11:15 AM 54.9 °F - 23.9 °F 30% 30.21 in 10.0 mi SE 13.8 mph 18.4 mph N/A   Clear
11:35 AM 55.9 °F - 24.1 °F 29% 30.20 in 10.0 mi SE 17.3 mph 23.0 mph N/A   Clear
11:55 AM 57.6 °F - 24.6 °F 28% 30.19 in 10.0 mi SE 17.3 mph - N/A   Clear
12:15 PM 59.0 °F - 25.0 °F 27% 30.19 in 10.0 mi SSE 13.8 mph 20.7 mph N/A   Clear
12:35 PM 59.7 °F - 25.0 °F 26% 30.16 in 10.0 mi SSE 10.4 mph 18.4 mph N/A   Clear
12:55 PM 61.7 °F - 25.0 °F 25% 30.13 in 10.0 mi SE 16.1 mph 23.0 mph N/A   Clear
1:15 PM 62.1 °F - 25.3 °F 25% 30.13 in 10.0 mi SE 15.0 mph 25.3 mph N/A   Clear
1:35 PM 64.2 °F - 25.7 °F 23% 30.13 in 10.0 mi SE 17.3 mph 23.0 mph N/A   Clear
1:55 PM 66.9 °F - 25.9 °F 21% 30.11 in 10.0 mi SE 17.3 mph 23.0 mph N/A   Clear
2:15 PM 67.8 °F - 25.0 °F 20% 30.09 in 10.0 mi ESE 21.9 mph 27.6 mph N/A   Clear
2:35 PM 68.4 °F - 25.0 °F 20% 30.07 in 10.0 mi SE 16.1 mph 26.5 mph N/A   Scattered Clouds
2:55 PM 68.0 °F - 25.7 °F 20% 30.04 in 10.0 mi South 12.7 mph 20.7 mph N/A   Mostly Cloudy
3:15 PM 71.8 °F - 29.3 °F 21% 30.02 in 7.0 mi South 24.2 mph 34.5 mph N/A   Scattered Clouds
3:35 PM 70.0 °F - 29.3 °F 22% 30.00 in 7.0 mi South 31.1 mph 40.3 mph N/A   Scattered Clouds
3:55 PM 73.6 °F - 27.7 °F 18% 29.98 in 4.0 mi South 27.6 mph 44.9 mph N/A   Haze
4:15 PM 73.6 °F - 26.4 °F 17% 29.97 in 10.0 mi SSW 26.5 mph 36.8 mph N/A   Scattered Clouds
4:35 PM 73.8 °F - 21.4 °F 14% 29.97 in 10.0 mi South 31.1 mph 38.0 mph N/A   Clear
4:55 PM 74.5 °F - 21.6 °F 14% 29.97 in 10.0 mi SSW 32.2 mph 39.1 mph N/A   Clear
5:15 PM 72.0 °F - 20.5 °F 14% 29.97 in 10.0 mi SSW 31.1 mph 36.8 mph N/A   Clear
5:35 PM 71.1 °F - 21.4 °F 15% 29.96 in 10.0 mi South 28.8 mph 35.7 mph N/A   Clear
5:55 PM 70.3 °F - 21.4 °F 16% 29.97 in 10.0 mi South 29.9 mph 36.8 mph N/A   Scattered Clouds
6:15 PM 69.8 °F - 21.4 °F 16% 29.96 in 10.0 mi SSW 27.6 mph 40.3 mph N/A   Clear
6:35 PM 70.0 °F - 21.6 °F 16% 29.96 in 10.0 mi South 29.9 mph 34.5 mph N/A   Clear
6:55 PM 69.1 °F - 21.9 °F 17% 29.96 in 10.0 mi South 24.2 mph 32.2 mph N/A   Clear
7:15 PM 68.4 °F - 21.0 °F 17% 29.97 in 10.0 mi South 19.6 mph 27.6 mph N/A   Scattered Clouds
7:55 PM 66.2 °F - 20.3 °F 17% 29.96 in 10.0 mi SSW 15.0 mph - N/A   Scattered Clouds
8:15 PM 64.4 °F - 22.5 °F 20% 29.97 in 10.0 mi South 15.0 mph - N/A   Clear
8:35 PM 62.2 °F - 24.8 °F 24% 29.98 in 10.0 mi South 12.7 mph - N/A   Clear
8:55 PM 60.6 °F - 25.3 °F 26% 29.98 in 10.0 mi SSE 13.8 mph - N/A   Clear
9:15 PM 58.1 °F - 25.7 °F 29% 29.99 in 10.0 mi South 12.7 mph - N/A   Clear
9:35 PM 55.2 °F - 24.8 °F 31% 29.99 in 10.0 mi SSW 5.8 mph - N/A   Clear
9:55 PM 57.9 °F - 15.4 °F 19% 30.01 in 10.0 mi West 21.9 mph 33.4 mph N/A   Clear
10:15 PM 60.6 °F - 21.0 °F 22% 30.02 in 10.0 mi WNW 20.7 mph 28.8 mph N/A   Clear
10:35 PM 59.2 °F - 22.1 °F 24% 30.04 in 10.0 mi WNW 21.9 mph 26.5 mph N/A   Clear
10:55 PM 58.5 °F - 23.0 °F 26% 30.05 in 10.0 mi WNW 18.4 mph 26.5 mph N/A   Clear
11:15 PM 55.4 °F - 26.4 °F 33% 30.07 in 10.0 mi NNW 18.4 mph - N/A   Clear
11:35 PM 53.2 °F - 31.6 °F 44% 30.08 in 10.0 mi NW 12.7 mph - N/A   Clear
11:55 PM 52.7 °F - 32.0 °F 45% 30.09 in 10.0 mi NNW 15.0 mph - N/A   Clear